sat.trackr.live / text

‹ back to catalog

STARLINK-36398

NORAD 67562 · 2026-016B

PAYLOAD ACTIVE UNKNOWN

§ Identity

Operator
Country
US
Launch date
2026-01-25
Launch site
AFWTR
Launch vehicle
Mass (kg)
RCS (m²)

Purposes: comms

External: N2YO · Heavens-Above · Gunter

§ Orbital elements

Epoch: 2026-05-25T02:59:21.361056Z

Period
93.91 min
Inclination
97.2845°
Eccentricity
0.0000498
Mean motion
15.33451729 rev/d
Perigee alt
465.2 km
Apogee alt
465.9 km
Semi-major
6,843.7 km
B*
6.9534e-4
RAAN
205.5414°
Arg perigee
56.7675°
Mean anomaly
303.3615°
Rev number
1,858

§ Raw data

STARLINK-363981 67562U 26016B   26145.12455279  .00022444  00000+0  69534-3 0  99992 67562  97.2845 205.5414 0000498  56.7675 303.3615 15.33451729 18584

JSON: /api/v1/satellites/67562 · /tle

For live sub-satellite position, see the globe view (requires WebGL).

§ Visibility from observer

Set your observer location to see the next 7 days of passes ≥ 10°. The values pass through the URL so the page stays shareable.

No JS? Fill the form by hand. The geolocation button needs JavaScript.